Hourly Weather Homno

Today, 16 April, Friday

Time Temperature Precipitation Wind Pressure Humidity
00:00 +4°C° 0.2 mm 4 mps 746 mmHg 94%
01:00 +4°C° 0.2 mm 4 mps 746 mmHg 94%
02:00 +4°C° 0 mm 4 mps 745 mmHg 95%
03:00 +4°C° 1 mm 4 mps 745 mmHg 95%
04:00 +4°C° 1 mm 4 mps 745 mmHg 96%
05:00 +4°C° 1 mm 4 mps 745 mmHg 96%
06:00 +4°C° 0.4 mm 4 mps 744 mmHg 96%
07:00 +5°C° 0.4 mm 4 mps 744 mmHg 96%
08:00 +5°C° 0 mm 3 mps 744 mmHg 96%
09:00 +7°C° 0 mm 3 mps 744 mmHg 94%
10:00 +8°C° 0 mm 3 mps 745 mmHg 92%
11:00 +8°C° 0 mm 3 mps 745 mmHg 90%
12:00 +8°C° 0.3 mm 4 mps 745 mmHg 87%
13:00 +10°C° 0.3 mm 4 mps 745 mmHg 84%
14:00 +11°C° 0.3 mm 4 mps 745 mmHg 81%
15:00 +10°C° 0.8 mm 4 mps 745 mmHg 82%
16:00 +10°C° 0.8 mm 4 mps 745 mmHg 83%
17:00 +10°C° 0.8 mm 4 mps 745 mmHg 84%
18:00 +9°C° 0.4 mm 3 mps 745 mmHg 87%
19:00 +9°C° 0.4 mm 3 mps 745 mmHg 90%
20:00 +8°C° 0.4 mm 2 mps 745 mmHg 93%
21:00 +8°C° 0 mm 2 mps 746 mmHg 93%
22:00 +7°C° 0 mm 2 mps 746 mmHg 94%
23:00 +7°C° 0 mm 2 mps 746 mmHg 94%

Tomorrow, 17 April, Saturday

Time Temperature Precipitation Wind Pressure Humidity
00:00 +7°C° 0 mm 2 mps 746 mmHg 94%
01:00 +7°C° 0 mm 2 mps 747 mmHg 94%
02:00 +7°C° 0 mm 2 mps 747 mmHg 94%
03:00 +7°C° 0 mm 2 mps 747 mmHg 95%
04:00 +7°C° 0 mm 2 mps 747 mmHg 95%
05:00 +6°C° 0 mm 2 mps 748 mmHg 96%
06:00 +7°C° 0 mm 2 mps 748 mmHg 93%
07:00 +7°C° 0 mm 2 mps 748 mmHg 91%
08:00 +8°C° 0 mm 2 mps 749 mmHg 89%
09:00 +9°C° 0.1 mm 2 mps 749 mmHg 83%
10:00 +10°C° 0.1 mm 2 mps 749 mmHg 77%
11:00 +12°C° 0.1 mm 2 mps 749 mmHg 71%
12:00 +13°C° 0.4 mm 2 mps 749 mmHg 67%
13:00 +14°C° 0.4 mm 2 mps 749 mmHg 63%
14:00 +14°C° 0.4 mm 2 mps 749 mmHg 59%
15:00 +14°C° 0.5 mm 2 mps 749 mmHg 60%
16:00 +14°C° 0.5 mm 2 mps 749 mmHg 61%
17:00 +14°C° 0.5 mm 1 mps 749 mmHg 62%
18:00 +12°C° 0.2 mm 1 mps 750 mmHg 69%
19:00 +11°C° 0.2 mm 1 mps 750 mmHg 75%
20:00 +9°C° 0.2 mm 2 mps 750 mmHg 82%
21:00 +9°C° 0 mm 1 mps 750 mmHg 85%
22:00 +9°C° 0 mm 1 mps 750 mmHg 87%
23:00 +8°C° 0 mm 1 mps 750 mmHg 90%

Day after tomorrow, 18 April, Sunday

Time Temperature Precipitation Wind Pressure Humidity
00:00 +8°C° 0 mm 1 mps 750 mmHg 90%
01:00 +7°C° 0 mm 2 mps 750 mmHg 91%
02:00 +6°C° 0 mm 2 mps 750 mmHg 91%
03:00 +6°C° 0 mm 2 mps 750 mmHg 91%
04:00 +6°C° 0 mm 2 mps 750 mmHg 91%
05:00 +6°C° 0 mm 2 mps 750 mmHg 90%
06:00 +7°C° 0 mm 2 mps 750 mmHg 90%
07:00 +8°C° 0 mm 2 mps 749 mmHg 90%
08:00 +8°C° 0 mm 2 mps 749 mmHg 90%
09:00 +10°C° 0.1 mm 3 mps 749 mmHg 84%
10:00 +11°C° 0.1 mm 3 mps 749 mmHg 78%
11:00 +12°C° 0.1 mm 4 mps 749 mmHg 72%
12:00 +12°C° 0.1 mm 4 mps 749 mmHg 74%
13:00 +11°C° 0.1 mm 4 mps 750 mmHg 76%
14:00 +10°C° 0.1 mm 4 mps 750 mmHg 78%
15:00 +11°C° 0 mm 4 mps 750 mmHg 72%
16:00 +11°C° 0 mm 3 mps 750 mmHg 67%
17:00 +12°C° 0 mm 3 mps 750 mmHg 61%
18:00 +11°C° 0 mm 3 mps 750 mmHg 66%
19:00 +9°C° 0 mm 3 mps 750 mmHg 71%
20:00 +8°C° 0 mm 3 mps 750 mmHg 77%
21:00 +8°C° 0 mm 3 mps 750 mmHg 80%
22:00 +7°C° 0 mm 3 mps 750 mmHg 83%
23:00 +5°C° 0 mm 3 mps 750 mmHg 87%

19 April, Monday

Time Temperature Precipitation Wind Pressure Humidity
00:00 +5°C° 0 mm 3 mps 750 mmHg 88%
01:00 +6°C° 0 mm 2 mps 750 mmHg 89%
02:00 +6°C° 0 mm 2 mps 750 mmHg 90%
03:00 +5°C° 0 mm 2 mps 750 mmHg 91%
04:00 +5°C° 0 mm 2 mps 750 mmHg 91%
05:00 +4°C° 0 mm 3 mps 750 mmHg 92%
06:00 +5°C° 0 mm 3 mps 750 mmHg 89%
07:00 +7°C° 0 mm 3 mps 749 mmHg 86%
08:00 +7°C° 0 mm 3 mps 749 mmHg 83%
09:00 +8°C° 0 mm 3 mps 749 mmHg 79%
10:00 +9°C° 0 mm 3 mps 749 mmHg 74%
11:00 +10°C° 0 mm 4 mps 749 mmHg 69%
12:00 +10°C° 0 mm 4 mps 749 mmHg 67%
13:00 +10°C° 0 mm 4 mps 748 mmHg 66%
14:00 +10°C° 0 mm 4 mps 748 mmHg 65%
15:00 +10°C° 0 mm 4 mps 748 mmHg 65%
16:00 +10°C° 0 mm 4 mps 747 mmHg 65%
17:00 +8°C° 0 mm 4 mps 747 mmHg 65%
18:00 +8°C° 0 mm 4 mps 747 mmHg 71%
19:00 +8°C° 0 mm 3 mps 747 mmHg 76%
20:00 +7°C° 0 mm 3 mps 746 mmHg 82%
21:00 +7°C° 0 mm 3 mps 746 mmHg 83%
22:00 +7°C° 0 mm 2 mps 746 mmHg 84%
23:00 +6°C° 0 mm 2 mps 746 mmHg 85%

20 April, Tuesday

Time Temperature Precipitation Wind Pressure Humidity
00:00 +6°C° 0 mm 2 mps 745 mmHg 86%
01:00 +6°C° 0 mm 2 mps 745 mmHg 88%
02:00 +6°C° 0 mm 2 mps 744 mmHg 89%
03:00 +6°C° 0 mm 2 mps 744 mmHg 91%
04:00 +5°C° 0 mm 2 mps 743 mmHg 92%
05:00 +5°C° 0 mm 2 mps 743 mmHg 93%
06:00 +4°C° 0 mm 3 mps 743 mmHg 89%
07:00 +5°C° 0 mm 3 mps 742 mmHg 86%
08:00 +7°C° 0 mm 3 mps 742 mmHg 82%
09:00 +7°C° 0.1 mm 3 mps 742 mmHg 80%
10:00 +6°C° 0.1 mm 4 mps 741 mmHg 77%
11:00 +7°C° 0.1 mm 4 mps 741 mmHg 75%
12:00 +7°C° 0.1 mm 4 mps 741 mmHg 73%
13:00 +7°C° 0.1 mm 5 mps 740 mmHg 70%
14:00 +8°C° 0.1 mm 5 mps 740 mmHg 68%
15:00 +8°C° 0.1 mm 5 mps 740 mmHg 68%
16:00 +8°C° 0.1 mm 5 mps 739 mmHg 68%
17:00 +8°C° 0.1 mm 6 mps 739 mmHg 68%
18:00 +7°C° 0.1 mm 6 mps 739 mmHg 74%
19:00 +6°C° 0.1 mm 5 mps 739 mmHg 80%
20:00 +5°C° 0.1 mm 5 mps 739 mmHg 86%
21:00 +5°C° 0.1 mm 5 mps 739 mmHg 87%
22:00 +5°C° 0.1 mm 5 mps 738 mmHg 87%
23:00 +5°C° 0.1 mm 5 mps 738 mmHg 88%

21 April, Wednesday

Time Temperature Precipitation Wind Pressure Humidity
00:00 +4°C° 0.1 mm 6 mps 738 mmHg 88%
01:00 +4°C° 0.1 mm 6 mps 738 mmHg 89%
02:00 +4°C° 0.1 mm 6 mps 738 mmHg 89%
03:00 +4°C° 0 mm 7 mps 738 mmHg 88%
04:00 +4°C° 0 mm 7 mps 738 mmHg 88%
05:00 +4°C° 0 mm 7 mps 738 mmHg 87%
06:00 +4°C° 0 mm 7 mps 739 mmHg 85%
07:00 +4°C° 0 mm 7 mps 739 mmHg 82%
08:00 +4°C° 0 mm 8 mps 739 mmHg 80%
09:00 +5°C° 0 mm 8 mps 740 mmHg 75%
10:00 +6°C° 0 mm 8 mps 740 mmHg 70%
11:00 +6°C° 0 mm 8 mps 740 mmHg 65%
12:00 +6°C° 0 mm 7 mps 741 mmHg 65%
13:00 +6°C° 0 mm 7 mps 742 mmHg 66%
14:00 +6°C° 0 mm 7 mps 742 mmHg 67%
15:00 +7°C° 0 mm 6 mps 743 mmHg 66%
16:00 +7°C° 0 mm 6 mps 743 mmHg 65%
17:00 +7°C° 0 mm 5 mps 743 mmHg 64%
18:00 +7°C° 0 mm 4 mps 744 mmHg 66%
19:00 +6°C° 0 mm 4 mps 744 mmHg 69%
20:00 +7°C° 0 mm 3 mps 745 mmHg 72%
21:00 +5°C° 0 mm 3 mps 745 mmHg 77%
22:00 +4°C° 0 mm 3 mps 746 mmHg 82%
23:00 +3°C° 0 mm 3 mps 746 mmHg 86%
Show more